Regional Weather Roundup
Issued by NWS

Home | Current Version | Previous Version | Text Only | Print | Product List | Glossary On
Versions: 1 2 3 4 5 6 7 8 9 10 11 12 13 14 15 16 17 18 19 20 21 22 23 24 25 26 27 28 29 30 31 32 33 34 35 36 37 38 39 40 41 42 43 44 45 46 47 48 49 50
000
ASUS45 KREV 041810
RWRNV
NEVADA REGIONAL WEATHER ROUNDUP
NATIONAL WEATHER SERVICE RENO NV
1000 AM PST SUN DEC 04 2016

NOTE: "FAIR" INDICATES FEW OR NO CLOUDS BELOW 12,000 FEET WITH NO
SIGNIFICANT WEATHER AND/OR OBSTRUCTIONS TO VISIBILITY.

NVZ001-003-004-041900-
WESTERN NEVADA

CITY           SKY/WX    TMP DP  RH WIND       PRES   REMARKS
RENO           PTSUNNY   37  22  54 VRB3      30.16F
6HR MIN TEMP:  26; 6HR MAX TEMP:  37;

CARSON CITY    FAIR      36  23  60 CALM      30.18F
MINDEN         FAIR      37  23  56 CALM      30.19F
PYRAMID LAKE     N/A     43 N/A N/A N5          N/A
FALLON         MOSUNNY   39  17  41 SE3       30.16F
6HR MIN TEMP:  20; 6HR MAX TEMP:  39;

LOVELOCK       PTSUNNY   34  20  56 CALM      30.17F
6HR MIN TEMP:  20; 6HR MAX TEMP:  34;

HAWTHORNE        N/A    N/A N/A N/A MISG        N/A
$$

NVZ002-CAZ072-073-041900-
NORTHERN AND CENTRAL SIERRA

CITY           SKY/WX    TMP DP  RH WIND       PRES   REMARKS
S. LAKE TAHOE  MOSUNNY   47  24  40 S12       30.21F
6HR MIN TEMP:  19; 6HR MAX TEMP:  47;

SQUAW VLY 8000   N/A     37  23  56 SW15        N/A
SUSANVILLE     SUNNY     34  28  80 E3        30.15F
MAMMOTH LAKES  FAIR      41  20  42 SE5       30.24S
6HR MIN TEMP:  17; 6HR MAX TEMP:  44;

BRIDGEPORT       N/A     52  13  21 SW13G22   30.20R
$$

NVZ030-031-036-041900-
NORTHERN NEVADA

CITY           SKY/WX    TMP DP  RH WIND       PRES   REMARKS
ELKO           CLOUDY    29  18  63 SW6       30.13F
6HR MIN TEMP:  16; 6HR MAX TEMP:  29;

WINNEMUCCA     PTSUNNY   37  24  59 W3        30.12F
6HR MIN TEMP:  22; 6HR MAX TEMP:  37;

WENDOVER       PTSUNNY   28  16  59 E3        30.13F
$$

NVZ035-037-041900-
CENTRAL NEVADA

CITY           SKY/WX    TMP DP  RH WIND       PRES   REMARKS
ELY            SUNNY     38  10  31 S7        30.15F
6HR MIN TEMP:  11; 6HR MAX TEMP:  38;

EUREKA           N/A     32  14  47 CALM      30.15S
6HR MIN TEMP:  13; 6HR MAX TEMP:  32;

$$

NVZ013-014-041900-
SOUTH CENTRAL NEVADA

CITY           SKY/WX    TMP DP  RH WIND       PRES   REMARKS
TONOPAH        MOSUNNY   40  15  36 CALM      30.20S
6HR MIN TEMP:  20; 6HR MAX TEMP:  40;

$$

NVZ017-020-022-041900-
SOUTHERN NEVADA

CITY           SKY/WX    TMP DP  RH WIND       PRES   REMARKS
LAS VEGAS      MOSUNNY   53  13  20 CALM      30.19F
6HR MIN TEMP:  37; 6HR MAX TEMP:  53;

N. LAS VEGAS   SUNNY     51  15  23 CALM      30.19S
6HR MIN TEMP:  35; 6HR MAX TEMP:  51;

NELLIS AFB     SUNNY     48  15  27 CALM      30.20S
6HR MIN TEMP:  31; 6HR MAX TEMP:  48;

HENDERSON      SUNNY     53  15  22 N5        30.21S
6HR MIN TEMP:  34; 6HR MAX TEMP:  53;

MERCURY        SUNNY     52  14  22 E5        30.16F
6HR MIN TEMP:  31; 6HR MAX TEMP:  52;

$$



USA.gov is the U.S. government's official web portal to all federal, state and local government web resources and services.